{"data":{"norad_id":28895,"epoch":"2026-05-25T03:56:46.651776Z","epoch_age_seconds":63860,"freshness":"FRESH","line1":"1 28895U 05043F   26145.16442884  .00001185  00000+0  19461-3 0  9997","line2":"2 28895  98.2961 300.3072 0012778 279.1709  80.8052 14.72559321 98362","mean_motion":14.72559321,"eccentricity":0.0012778,"inclination_deg":98.2961,"raan_deg":300.3072,"arg_perigee_deg":279.1709,"mean_anomaly_deg":80.8052,"bstar":0.00019461,"rev_number":9836,"period_min":97.78892975409,"perigee_km":643.92531163981,"apogee_km":661.89385428724,"semimajor_km":7031.0465829635,"source":"CELESTRAK","updated_at":"2026-05-25T13:38:25.486093Z"}}